Year,Month,Day,Hour,Minute,Value (Times are PST for temperature in C)
2015,08,25,00,00,14.80
2015,08,25,00,01,14.80
2015,08,25,00,02,14.80
2015,08,25,00,03,14.70
2015,08,25,00,04,14.70
2015,08,25,00,05,14.70
2015,08,25,00,06,14.70
2015,08,25,00,07,14.70
2015,08,25,00,08,14.70
2015,08,25,00,09,14.60
2015,08,25,00,10,14.60
2015,08,25,00,11,14.60
2015,08,25,00,12,14.60
2015,08,25,00,13,14.60
2015,08,25,00,14,14.60
2015,08,25,00,15,14.60
2015,08,25,00,16,14.60
2015,08,25,00,17,14.60
2015,08,25,00,18,14.50
2015,08,25,00,19,14.50
2015,08,25,00,20,14.50
2015,08,25,00,21,14.50
2015,08,25,00,22,14.50
2015,08,25,00,23,14.50
2015,08,25,00,24,14.50
2015,08,25,00,25,14.50
2015,08,25,00,26,14.50
2015,08,25,00,27,14.50
2015,08,25,00,28,14.50
2015,08,25,00,29,14.50
2015,08,25,00,30,14.50
2015,08,25,00,31,14.50
2015,08,25,00,32,14.50
2015,08,25,00,33,14.50
2015,08,25,00,34,14.50
2015,08,25,00,35,14.50
2015,08,25,00,36,14.50
2015,08,25,00,37,14.50
2015,08,25,00,38,14.40
2015,08,25,00,39,14.40
2015,08,25,00,40,14.40
2015,08,25,00,41,14.40
2015,08,25,00,42,14.40
2015,08,25,00,43,14.30
2015,08,25,00,44,14.30
2015,08,25,00,45,14.30
2015,08,25,00,46,14.30
2015,08,25,00,47,14.30
2015,08,25,00,48,14.30
2015,08,25,00,49,14.30
2015,08,25,00,50,14.30
2015,08,25,00,51,14.20
2015,08,25,00,52,14.20
2015,08,25,00,53,14.20
2015,08,25,00,54,14.20
2015,08,25,00,55,14.20
2015,08,25,00,56,14.20
2015,08,25,00,57,14.20
2015,08,25,00,58,14.20
2015,08,25,00,59,14.20
2015,08,25,01,00,14.20
2015,08,25,01,01,14.20
2015,08,25,01,02,14.20
2015,08,25,01,03,14.20
2015,08,25,01,04,14.20
2015,08,25,01,05,14.30
2015,08,25,01,06,14.40
2015,08,25,01,07,14.50
2015,08,25,01,08,14.60
2015,08,25,01,09,14.60
2015,08,25,01,10,14.60
2015,08,25,01,11,14.60
2015,08,25,01,12,14.60
2015,08,25,01,13,14.60
2015,08,25,01,14,14.60
2015,08,25,01,15,14.60
2015,08,25,01,16,14.60
2015,08,25,01,17,14.60
2015,08,25,01,18,14.60
2015,08,25,01,19,14.50
2015,08,25,01,20,14.50
2015,08,25,01,21,14.40
2015,08,25,01,22,14.40
2015,08,25,01,23,14.40
2015,08,25,01,24,14.40
2015,08,25,01,25,14.30
2015,08,25,01,26,14.30
2015,08,25,01,27,14.30
2015,08,25,01,28,14.30
2015,08,25,01,29,14.30
2015,08,25,01,30,14.20
2015,08,25,01,31,14.20
2015,08,25,01,32,14.30
2015,08,25,01,33,14.40
2015,08,25,01,34,14.50
2015,08,25,01,35,14.60
2015,08,25,01,36,14.70
2015,08,25,01,37,14.80
2015,08,25,01,38,14.80
2015,08,25,01,39,15.00
2015,08,25,01,40,15.00
2015,08,25,01,41,15.00
2015,08,25,01,42,15.00
2015,08,25,01,43,15.20
2015,08,25,01,44,15.30
2015,08,25,01,49,15.60
2015,08,25,01,50,15.60
2015,08,25,01,51,15.50
2015,08,25,01,52,15.50
2015,08,25,01,53,15.40
2015,08,25,01,54,15.30
2015,08,25,01,55,15.20
2015,08,25,01,56,15.00
2015,08,25,01,57,15.00
2015,08,25,01,58,15.00
2015,08,25,01,59,15.00
2015,08,25,02,00,15.00
2015,08,25,02,01,15.00
2015,08,25,02,02,15.00
2015,08,25,02,03,15.00
2015,08,25,02,04,15.00
2015,08,25,02,05,15.00
2015,08,25,02,06,15.00
2015,08,25,02,07,15.00
2015,08,25,02,08,15.00
2015,08,25,02,09,15.00
2015,08,25,02,10,15.00
2015,08,25,02,11,15.00
2015,08,25,02,12,15.00
2015,08,25,02,13,15.00
2015,08,25,02,14,15.00
2015,08,25,02,15,15.00
2015,08,25,02,16,15.10
2015,08,25,02,17,15.10
2015,08,25,02,18,15.00
2015,08,25,02,19,15.00
2015,08,25,02,20,15.00
2015,08,25,02,21,15.00
2015,08,25,02,22,15.00
2015,08,25,02,23,15.00
2015,08,25,02,24,15.00
2015,08,25,02,25,15.00
2015,08,25,02,26,15.00
2015,08,25,02,27,14.80
2015,08,25,02,28,14.70
2015,08,25,02,29,14.60
2015,08,25,02,30,14.50
2015,08,25,02,31,14.40
2015,08,25,02,32,14.40
2015,08,25,02,33,14.30
2015,08,25,02,34,14.20
2015,08,25,02,35,14.10
2015,08,25,02,36,14.10
2015,08,25,02,37,14.00
2015,08,25,02,38,14.00
2015,08,25,02,39,14.00
2015,08,25,02,40,14.00
2015,08,25,02,41,13.90
2015,08,25,02,42,13.90
2015,08,25,02,43,13.90
2015,08,25,02,44,13.80
2015,08,25,02,45,13.80
2015,08,25,02,46,13.80
2015,08,25,02,47,13.70
2015,08,25,02,48,13.70
2015,08,25,02,49,13.70
2015,08,25,02,50,13.60
2015,08,25,02,51,13.60
2015,08,25,02,52,13.50
2015,08,25,02,53,13.50
2015,08,25,02,54,13.40
2015,08,25,02,55,13.40
2015,08,25,02,56,13.30
2015,08,25,02,57,13.30
2015,08,25,02,58,13.30
2015,08,25,02,59,13.30
2015,08,25,03,00,13.20
2015,08,25,03,01,13.20
2015,08,25,03,02,13.10
2015,08,25,03,03,13.10
2015,08,25,03,04,13.10
2015,08,25,03,05,13.00
2015,08,25,03,06,13.00
2015,08,25,03,07,12.90
2015,08,25,03,08,12.90
2015,08,25,03,09,12.90
2015,08,25,03,10,12.80
2015,08,25,03,11,12.80
2015,08,25,03,12,12.80
2015,08,25,03,13,12.80
2015,08,25,03,14,12.70
2015,08,25,03,15,12.70
2015,08,25,03,16,12.70
2015,08,25,03,17,12.60
2015,08,25,03,18,12.60
2015,08,25,03,19,12.60
2015,08,25,03,20,12.50
2015,08,25,03,21,12.50
2015,08,25,03,22,12.50
2015,08,25,03,23,12.40
2015,08,25,03,24,12.40
2015,08,25,03,25,12.40
2015,08,25,03,26,12.30
2015,08,25,03,27,12.30
2015,08,25,03,28,12.30
2015,08,25,03,29,12.30
2015,08,25,03,30,12.20
2015,08,25,03,31,12.20
2015,08,25,03,32,12.20
2015,08,25,03,33,12.20
2015,08,25,03,34,12.20
2015,08,25,03,35,12.10
2015,08,25,03,36,12.10
2015,08,25,03,37,12.10
2015,08,25,03,38,12.10
2015,08,25,03,39,12.00
2015,08,25,03,40,12.00
2015,08,25,03,41,11.90
2015,08,25,03,42,11.90
2015,08,25,03,43,11.90
2015,08,25,03,44,11.90
2015,08,25,03,45,11.80
2015,08,25,03,46,11.80
2015,08,25,03,47,11.80
2015,08,25,03,48,11.80
2015,08,25,03,49,11.80
2015,08,25,03,50,11.80
2015,08,25,03,51,11.70
2015,08,25,03,52,11.70
2015,08,25,03,53,11.70
2015,08,25,03,54,11.70
2015,08,25,03,55,11.70
2015,08,25,03,56,11.70
2015,08,25,03,57,11.70
2015,08,25,03,58,11.60
2015,08,25,03,59,11.60
2015,08,25,04,00,11.60
2015,08,25,04,01,11.60
2015,08,25,04,02,11.60
2015,08,25,04,03,11.60
2015,08,25,04,04,11.60
2015,08,25,04,05,11.50
2015,08,25,04,06,11.50
2015,08,25,04,07,11.50
2015,08,25,04,08,11.50
2015,08,25,04,09,11.40
2015,08,25,04,10,11.40
2015,08,25,04,11,11.40
2015,08,25,04,12,11.40
2015,08,25,04,13,11.40
2015,08,25,04,14,11.30
2015,08,25,04,15,11.30
2015,08,25,04,16,11.30
2015,08,25,04,17,11.30
2015,08,25,04,18,11.30
2015,08,25,04,19,11.30
2015,08,25,04,20,11.30
2015,08,25,04,21,11.20
2015,08,25,04,22,11.20
2015,08,25,04,23,11.20
2015,08,25,04,24,11.20
2015,08,25,04,25,11.20
2015,08,25,04,26,11.20
2015,08,25,04,27,11.20
2015,08,25,04,28,11.10
2015,08,25,04,29,11.10
2015,08,25,04,30,11.10
2015,08,25,04,31,11.10
2015,08,25,04,32,11.10
2015,08,25,04,33,11.10
2015,08,25,04,34,11.10
2015,08,25,04,35,11.10
2015,08,25,04,36,11.00
2015,08,25,04,37,11.00
2015,08,25,04,38,11.00
2015,08,25,04,39,11.00
2015,08,25,04,40,11.00
2015,08,25,04,41,11.00
2015,08,25,04,42,11.00
2015,08,25,04,43,10.90
2015,08,25,04,44,10.90
2015,08,25,04,45,10.90
2015,08,25,04,46,10.90
2015,08,25,04,47,10.90
2015,08,25,04,48,10.90
2015,08,25,04,49,10.90
2015,08,25,04,50,10.90
2015,08,25,04,51,10.80
2015,08,25,04,52,10.80
2015,08,25,04,53,10.80
2015,08,25,04,54,10.80
2015,08,25,04,55,10.80
2015,08,25,04,56,10.80
2015,08,25,04,57,10.80
2015,08,25,04,58,10.80
2015,08,25,04,59,10.80
2015,08,25,05,00,10.80
2015,08,25,05,01,10.80
2015,08,25,05,02,10.70
2015,08,25,05,03,10.70
2015,08,25,05,04,10.70
2015,08,25,05,05,10.70
2015,08,25,05,06,10.70
2015,08,25,05,07,10.70
2015,08,25,05,08,10.70
2015,08,25,05,09,10.70
2015,08,25,05,10,10.70
2015,08,25,05,11,10.70
2015,08,25,05,12,10.70
2015,08,25,05,13,10.70
2015,08,25,05,14,10.70
2015,08,25,05,15,10.70
2015,08,25,05,16,10.70
2015,08,25,05,17,10.70
2015,08,25,05,18,10.70
2015,08,25,05,19,10.60
2015,08,25,05,20,10.60
2015,08,25,05,21,10.60
2015,08,25,05,22,10.60
2015,08,25,05,23,10.60
2015,08,25,05,24,10.60
2015,08,25,05,25,10.60
2015,08,25,05,26,10.60
2015,08,25,05,27,10.60
2015,08,25,05,28,10.60
2015,08,25,05,29,10.60
2015,08,25,05,30,10.60
2015,08,25,05,31,10.60
2015,08,25,05,32,10.60
2015,08,25,05,33,10.60
2015,08,25,05,34,10.60
2015,08,25,05,35,10.60
2015,08,25,05,36,10.60
2015,08,25,05,37,10.60
2015,08,25,05,38,10.60
2015,08,25,05,39,10.60
2015,08,25,05,40,10.60
2015,08,25,05,41,10.60
2015,08,25,05,42,10.60
2015,08,25,05,43,10.60
2015,08,25,05,44,10.60
2015,08,25,05,45,10.60
2015,08,25,05,46,10.60
2015,08,25,05,47,10.60
2015,08,25,05,48,10.60
2015,08,25,05,49,10.60
2015,08,25,05,50,10.60
2015,08,25,05,51,10.60
2015,08,25,05,52,10.60
2015,08,25,05,53,10.60
2015,08,25,05,54,10.60
2015,08,25,05,55,10.60
2015,08,25,05,56,10.60
2015,08,25,05,57,10.60
2015,08,25,05,58,10.60
2015,08,25,05,59,10.60
2015,08,25,06,00,10.60
2015,08,25,06,01,10.60
2015,08,25,06,02,10.60
2015,08,25,06,03,10.60
2015,08,25,06,04,10.60
2015,08,25,06,05,10.60
2015,08,25,06,06,10.60
2015,08,25,06,07,10.60
2015,08,25,06,08,10.60
2015,08,25,06,09,10.60
2015,08,25,06,10,10.60
2015,08,25,06,11,10.60
2015,08,25,06,12,10.60
2015,08,25,06,13,10.60
2015,08,25,06,14,10.60
2015,08,25,06,15,10.60
2015,08,25,06,16,10.60
2015,08,25,06,17,10.60
2015,08,25,06,18,10.60
2015,08,25,06,19,10.60
2015,08,25,06,20,10.60
2015,08,25,06,21,10.60
2015,08,25,06,22,10.60
2015,08,25,06,23,10.60
2015,08,25,06,24,10.60
2015,08,25,06,25,10.60
2015,08,25,06,26,10.60
2015,08,25,06,27,10.60
2015,08,25,06,28,10.60
2015,08,25,06,29,10.60
2015,08,25,06,30,10.60
2015,08,25,06,31,10.60
2015,08,25,06,32,10.60
2015,08,25,06,33,10.60
2015,08,25,06,34,10.60
2015,08,25,06,35,10.60
2015,08,25,06,36,10.60
2015,08,25,06,37,10.60
2015,08,25,06,38,10.60
2015,08,25,06,39,10.60
2015,08,25,06,40,10.60
2015,08,25,06,41,10.60
2015,08,25,06,42,10.60
2015,08,25,06,43,10.60
2015,08,25,06,44,10.60
2015,08,25,06,45,10.60
2015,08,25,06,46,10.60
2015,08,25,06,47,10.60
2015,08,25,06,48,10.60
2015,08,25,06,49,10.60
2015,08,25,06,50,10.60
2015,08,25,06,51,10.60
2015,08,25,06,52,10.60
2015,08,25,06,53,10.60
2015,08,25,06,54,10.70
2015,08,25,06,55,10.70
2015,08,25,06,56,10.70
2015,08,25,06,57,10.70
2015,08,25,06,58,10.70
2015,08,25,06,59,10.70
2015,08,25,07,00,10.70
2015,08,25,07,01,10.70
2015,08,25,07,02,10.70
2015,08,25,07,03,10.70
2015,08,25,07,04,10.70
2015,08,25,07,05,10.80
2015,08,25,07,06,10.80
2015,08,25,07,07,10.80
2015,08,25,07,08,10.80
2015,08,25,07,09,10.80
2015,08,25,07,10,10.80
2015,08,25,07,11,10.80
2015,08,25,07,12,10.80
2015,08,25,07,13,10.80
2015,08,25,07,14,10.80
2015,08,25,07,15,10.80
2015,08,25,07,16,10.80
2015,08,25,07,17,10.90
2015,08,25,07,18,10.90
2015,08,25,07,19,10.90
2015,08,25,07,20,10.90
2015,08,25,07,21,11.00
2015,08,25,07,22,11.00
2015,08,25,07,23,11.00
2015,08,25,07,24,11.10
2015,08,25,07,25,11.10
2015,08,25,07,26,11.10
2015,08,25,07,27,11.10
2015,08,25,07,28,11.10
2015,08,25,07,29,11.20
2015,08,25,07,30,11.20
2015,08,25,07,31,11.20
2015,08,25,07,32,11.20
2015,08,25,07,33,11.20
2015,08,25,07,34,11.20
2015,08,25,07,35,11.30
2015,08,25,07,36,11.30
2015,08,25,07,37,11.30
2015,08,25,07,38,11.30
2015,08,25,07,39,11.30
2015,08,25,07,40,11.30
2015,08,25,07,41,11.40
2015,08,25,07,42,11.40
2015,08,25,07,43,11.40
2015,08,25,07,44,11.40
2015,08,25,07,45,11.40
2015,08,25,07,46,11.50
2015,08,25,07,47,11.50
2015,08,25,07,48,11.50
2015,08,25,07,49,11.60
2015,08,25,07,50,11.60
2015,08,25,07,51,11.60
2015,08,25,07,52,11.60
2015,08,25,07,53,11.60
2015,08,25,07,54,11.70
2015,08,25,07,55,11.70
2015,08,25,07,56,11.70
2015,08,25,07,57,11.70
2015,08,25,07,58,11.80
2015,08,25,07,59,11.80
2015,08,25,08,00,11.80
2015,08,25,08,01,11.80
2015,08,25,08,02,11.90
2015,08,25,08,03,11.90
2015,08,25,08,04,11.90
2015,08,25,08,05,11.90
2015,08,25,08,06,12.00
2015,08,25,08,07,12.00
2015,08,25,08,08,12.10
2015,08,25,08,09,12.10
2015,08,25,08,10,12.10
2015,08,25,08,11,12.20
2015,08,25,08,12,12.20
2015,08,25,08,13,12.20
2015,08,25,08,14,12.20
2015,08,25,08,15,12.20
2015,08,25,08,16,12.30
2015,08,25,08,17,12.30
2015,08,25,08,18,12.30
2015,08,25,08,19,12.30
2015,08,25,08,20,12.30
2015,08,25,08,21,12.40
2015,08,25,08,22,12.40
2015,08,25,08,23,12.40
2015,08,25,08,24,12.50
2015,08,25,08,25,12.50
2015,08,25,08,26,12.60
2015,08,25,08,27,12.70
2015,08,25,08,28,12.90
2015,08,25,08,29,13.00
2015,08,25,08,30,13.20
2015,08,25,08,31,13.30
2015,08,25,08,32,13.50
2015,08,25,08,33,13.70
2015,08,25,08,34,13.80
2015,08,25,08,35,14.00
2015,08,25,08,36,14.10
2015,08,25,08,37,14.20
2015,08,25,08,38,14.30
2015,08,25,08,39,14.40
2015,08,25,08,40,14.50
2015,08,25,08,41,14.60
2015,08,25,08,42,14.70
2015,08,25,08,43,14.80
2015,08,25,08,44,14.80
2015,08,25,08,45,14.90
2015,08,25,08,46,14.90
2015,08,25,08,47,14.90
2015,08,25,08,48,15.00
2015,08,25,08,49,15.00
2015,08,25,08,50,15.00
2015,08,25,08,51,15.00
2015,08,25,08,52,15.00
2015,08,25,08,53,15.10
2015,08,25,08,54,15.20
2015,08,25,08,55,15.30
2015,08,25,08,56,15.40
2015,08,25,08,57,15.40
2015,08,25,08,58,15.50
2015,08,25,08,59,15.60
2015,08,25,09,00,15.70
2015,08,25,09,01,15.70
2015,08,25,09,02,15.80
2015,08,25,09,03,15.90
2015,08,25,09,04,16.00
2015,08,25,09,05,16.10
2015,08,25,09,06,16.20
2015,08,25,09,07,16.20
2015,08,25,09,08,16.30
2015,08,25,09,09,16.40
2015,08,25,09,10,16.40
2015,08,25,09,11,16.50
2015,08,25,09,12,16.50
2015,08,25,09,13,16.60
2015,08,25,09,14,16.60
2015,08,25,09,15,16.70
2015,08,25,09,16,16.80
2015,08,25,09,17,16.80
2015,08,25,09,18,16.90
2015,08,25,09,19,16.90
2015,08,25,09,20,17.00
2015,08,25,09,21,17.00
2015,08,25,09,22,17.10
2015,08,25,09,23,17.10
2015,08,25,09,24,17.20
2015,08,25,09,25,17.20
2015,08,25,09,26,17.20
2015,08,25,09,27,17.30
2015,08,25,09,28,17.30
2015,08,25,09,29,17.30
2015,08,25,09,30,17.30
2015,08,25,09,31,17.40
2015,08,25,09,32,17.40
2015,08,25,09,33,17.40
2015,08,25,09,34,17.50
2015,08,25,09,35,17.50
2015,08,25,09,36,17.60
2015,08,25,09,37,17.60
2015,08,25,09,38,17.70
2015,08,25,09,39,17.70
2015,08,25,09,40,17.80
2015,08,25,09,41,17.80
2015,08,25,09,42,17.90
2015,08,25,09,43,18.00
2015,08,25,09,44,18.10
2015,08,25,09,45,18.10
2015,08,25,09,46,18.20
2015,08,25,09,47,18.30
2015,08,25,09,48,18.30
2015,08,25,09,49,18.40
2015,08,25,09,50,18.40
2015,08,25,09,51,18.40
2015,08,25,09,52,18.40
2015,08,25,09,53,18.40
2015,08,25,09,54,18.50
2015,08,25,09,55,18.50
2015,08,25,09,56,18.60
2015,08,25,09,57,18.60
2015,08,25,09,58,18.70
2015,08,25,09,59,18.70
2015,08,25,10,00,18.70
2015,08,25,10,01,18.80
2015,08,25,10,02,18.80
2015,08,25,10,03,18.80
2015,08,25,10,04,18.80
2015,08,25,10,05,18.90
2015,08,25,10,06,18.90
2015,08,25,10,07,18.90
2015,08,25,10,08,18.90
2015,08,25,10,09,19.00
2015,08,25,10,10,19.10
2015,08,25,10,11,19.20
2015,08,25,10,12,19.30
2015,08,25,10,13,19.40
2015,08,25,10,14,19.50
2015,08,25,10,15,19.50
2015,08,25,10,16,19.60
2015,08,25,10,17,19.70
2015,08,25,10,18,19.80
2015,08,25,10,19,19.80
2015,08,25,10,20,19.80
2015,08,25,10,21,19.80
2015,08,25,10,22,19.90
2015,08,25,10,23,19.90
2015,08,25,10,24,20.00
2015,08,25,10,25,20.00
2015,08,25,10,26,20.10
2015,08,25,10,27,20.20
2015,08,25,10,28,20.20
2015,08,25,10,29,20.20
2015,08,25,10,30,20.30
2015,08,25,10,31,20.30
2015,08,25,10,32,20.30
2015,08,25,10,33,20.30
2015,08,25,10,34,20.20
2015,08,25,10,35,20.10
2015,08,25,10,36,20.00
2015,08,25,10,37,19.90
2015,08,25,10,38,19.90
2015,08,25,10,39,19.80
2015,08,25,10,40,19.70
2015,08,25,10,41,19.70
2015,08,25,10,42,19.60
2015,08,25,10,43,19.60
2015,08,25,10,44,19.50
2015,08,25,10,45,19.50
2015,08,25,10,46,19.50
2015,08,25,10,47,19.40
2015,08,25,10,48,19.30
2015,08,25,10,49,19.30
2015,08,25,10,50,19.30
2015,08,25,10,51,19.30
2015,08,25,10,52,19.30
2015,08,25,10,53,19.30
2015,08,25,10,54,19.30
2015,08,25,10,55,19.40
2015,08,25,10,56,19.40
2015,08,25,10,57,19.40
2015,08,25,10,58,19.40
2015,08,25,10,59,19.40
2015,08,25,11,00,19.40
2015,08,25,11,01,19.40
2015,08,25,11,02,19.30
2015,08,25,11,03,19.30
2015,08,25,11,04,19.30
2015,08,25,11,05,19.40
2015,08,25,11,06,19.40
2015,08,25,11,07,19.40
2015,08,25,11,08,19.50
2015,08,25,11,09,19.50
2015,08,25,11,10,19.60
2015,08,25,11,11,19.70
2015,08,25,11,12,19.80
2015,08,25,11,13,19.80
2015,08,25,11,14,19.80
2015,08,25,11,15,19.90
2015,08,25,11,16,20.00
2015,08,25,11,17,20.00
2015,08,25,11,18,20.10
2015,08,25,11,19,20.20
2015,08,25,11,20,20.30
2015,08,25,11,21,20.40
2015,08,25,11,22,20.50
2015,08,25,11,23,20.50
2015,08,25,11,24,20.60
2015,08,25,11,25,20.70
2015,08,25,11,26,20.80
2015,08,25,11,27,20.80
2015,08,25,11,28,20.90
2015,08,25,11,29,21.10
2015,08,25,11,30,21.10
2015,08,25,11,31,21.10
2015,08,25,11,32,21.20
2015,08,25,11,33,21.20
2015,08,25,11,34,21.30
2015,08,25,11,35,21.40
2015,08,25,11,36,21.50
2015,08,25,11,37,21.60
2015,08,25,11,38,21.60
2015,08,25,11,39,21.70
2015,08,25,11,40,21.70
2015,08,25,11,41,21.70
2015,08,25,11,42,21.70
2015,08,25,11,43,21.80
2015,08,25,11,44,21.80
2015,08,25,11,45,21.90
2015,08,25,11,46,22.00
2015,08,25,11,47,22.10
2015,08,25,11,48,22.10
2015,08,25,11,49,22.20
2015,08,25,11,50,22.20
2015,08,25,11,51,22.20
2015,08,25,11,52,22.30
2015,08,25,11,53,22.30
2015,08,25,11,54,22.40
2015,08,25,11,55,22.40
2015,08,25,11,56,22.40
2015,08,25,11,57,22.40
2015,08,25,11,58,22.40
2015,08,25,11,59,22.40
2015,08,25,12,00,22.40
2015,08,25,12,01,22.30
2015,08,25,12,02,22.30
2015,08,25,12,03,22.20
2015,08,25,12,04,22.20
2015,08,25,12,05,22.10
2015,08,25,12,06,22.10
2015,08,25,12,07,22.00
2015,08,25,12,08,22.00
2015,08,25,12,09,21.90
2015,08,25,12,10,22.00
2015,08,25,12,11,22.00
2015,08,25,12,12,22.00
2015,08,25,12,13,22.10
2015,08,25,12,14,22.10
2015,08,25,12,15,22.20
2015,08,25,12,16,22.20
2015,08,25,12,17,22.20
2015,08,25,12,18,22.20
2015,08,25,12,19,22.20
2015,08,25,12,20,22.20
2015,08,25,12,21,22.20
2015,08,25,12,22,22.20
2015,08,25,12,23,22.20
2015,08,25,12,24,22.20
2015,08,25,12,25,22.30
2015,08,25,12,26,22.30
2015,08,25,12,27,22.30
2015,08,25,12,28,22.20
2015,08,25,12,29,22.20
2015,08,25,12,30,22.10
2015,08,25,12,31,22.10
2015,08,25,12,32,22.10
2015,08,25,12,33,22.20
2015,08,25,12,34,22.20
2015,08,25,12,35,22.30
2015,08,25,12,36,22.30
2015,08,25,12,37,22.40
2015,08,25,12,38,22.40
2015,08,25,12,39,22.40
2015,08,25,12,40,22.40
2015,08,25,12,41,22.30
2015,08,25,12,42,22.30
2015,08,25,12,43,22.20
2015,08,25,12,44,22.10
2015,08,25,12,45,22.10
2015,08,25,12,46,22.00
2015,08,25,12,47,22.00
2015,08,25,12,48,22.10
2015,08,25,12,49,22.10
2015,08,25,12,50,22.20
2015,08,25,12,51,22.20
2015,08,25,12,52,22.30
2015,08,25,12,53,22.30
2015,08,25,12,54,22.30
2015,08,25,12,55,22.30
2015,08,25,12,56,22.40
2015,08,25,12,57,22.40
2015,08,25,12,58,22.50
2015,08,25,12,59,22.60
2015,08,25,13,00,22.70
2015,08,25,13,01,22.80
2015,08,25,13,02,22.90
2015,08,25,13,03,23.00
2015,08,25,13,04,23.10
2015,08,25,13,05,23.10
2015,08,25,13,06,23.20
2015,08,25,13,07,23.20
2015,08,25,13,08,23.20
2015,08,25,13,09,23.30
2015,08,25,13,10,23.30
2015,08,25,13,11,23.40
2015,08,25,13,12,23.40
2015,08,25,13,13,23.50
2015,08,25,13,14,23.60
2015,08,25,13,15,23.50
2015,08,25,13,16,23.50
2015,08,25,13,17,23.50
2015,08,25,13,18,23.40
2015,08,25,13,19,23.40
2015,08,25,13,20,23.40
2015,08,25,13,21,23.30
2015,08,25,13,22,23.40
2015,08,25,13,23,23.40
2015,08,25,13,24,23.40
2015,08,25,13,25,23.40
2015,08,25,13,26,23.40
2015,08,25,13,27,23.40
2015,08,25,13,28,23.50
2015,08,25,13,29,23.50
2015,08,25,13,30,23.50
2015,08,25,13,31,23.50
2015,08,25,13,32,23.40
2015,08,25,13,33,23.40
2015,08,25,13,34,23.40
2015,08,25,13,35,23.40
2015,08,25,13,36,23.40
2015,08,25,13,37,23.50
2015,08,25,13,38,23.50
2015,08,25,13,39,23.60
2015,08,25,13,40,23.70
2015,08,25,13,41,23.70
2015,08,25,13,42,23.70
2015,08,25,13,43,23.70
2015,08,25,13,44,23.80
2015,08,25,13,45,23.80
2015,08,25,13,46,23.80
2015,08,25,13,47,23.80
2015,08,25,13,48,23.80
2015,08,25,13,49,23.80
2015,08,25,13,50,23.90
2015,08,25,13,51,23.90
2015,08,25,13,52,23.90
2015,08,25,13,53,23.90
2015,08,25,13,54,23.90
2015,08,25,13,55,23.90
2015,08,25,13,56,23.90
2015,08,25,13,57,23.90
2015,08,25,13,58,23.80
2015,08,25,13,59,23.70
2015,08,25,14,00,23.60
2015,08,25,14,01,23.60
2015,08,25,14,02,23.60
2015,08,25,14,03,23.60
2015,08,25,14,04,23.70
2015,08,25,14,05,23.70
2015,08,25,14,06,23.70
2015,08,25,14,07,23.80
2015,08,25,14,08,23.90
2015,08,25,14,09,23.90
2015,08,25,14,10,24.00
2015,08,25,14,11,24.10
2015,08,25,14,12,24.10
2015,08,25,14,13,24.10
2015,08,25,14,14,24.10
2015,08,25,14,15,24.10
2015,08,25,14,16,24.10
2015,08,25,14,17,24.00
2015,08,25,14,18,24.00
2015,08,25,14,19,23.90
2015,08,25,14,20,23.90
2015,08,25,14,21,23.90
2015,08,25,14,22,23.90
2015,08,25,14,23,23.90
2015,08,25,14,24,23.90
2015,08,25,14,25,23.90
2015,08,25,14,26,23.90
2015,08,25,14,27,24.00
2015,08,25,14,28,24.00
2015,08,25,14,29,24.10
2015,08,25,14,30,24.10
2015,08,25,14,31,24.10
2015,08,25,14,32,24.00
2015,08,25,14,33,24.00
2015,08,25,14,34,24.00
2015,08,25,14,35,24.10
2015,08,25,14,36,24.10
2015,08,25,14,37,24.00
2015,08,25,14,38,24.00
2015,08,25,14,39,24.00
2015,08,25,14,40,24.00
2015,08,25,14,41,24.10
2015,08,25,14,42,24.10
2015,08,25,14,43,24.10
2015,08,25,14,44,24.10
2015,08,25,14,45,24.10
2015,08,25,14,46,24.20
2015,08,25,14,47,24.20
2015,08,25,14,48,24.10
2015,08,25,14,49,24.10
2015,08,25,14,50,24.10
2015,08,25,14,51,24.10
2015,08,25,14,52,24.10
2015,08,25,14,53,24.20
2015,08,25,14,54,24.20
2015,08,25,14,55,24.10
2015,08,25,14,56,24.10
2015,08,25,14,57,24.10
2015,08,25,14,58,24.10
2015,08,25,14,59,24.10
2015,08,25,15,00,24.00
2015,08,25,15,01,24.00
2015,08,25,15,02,23.90
2015,08,25,15,03,23.80
2015,08,25,15,04,23.80
2015,08,25,15,05,23.80
2015,08,25,15,06,23.90
2015,08,25,15,07,23.90
2015,08,25,15,08,23.90
2015,08,25,15,09,23.90
2015,08,25,15,10,23.90
2015,08,25,15,11,24.00
2015,08,25,15,12,24.10
2015,08,25,15,13,24.10
2015,08,25,15,14,24.10
2015,08,25,15,15,24.10
2015,08,25,15,16,24.00
2015,08,25,15,17,24.00
2015,08,25,15,18,23.90
2015,08,25,15,19,23.90
2015,08,25,15,20,24.00
2015,08,25,15,21,24.10
2015,08,25,15,22,24.10
2015,08,25,15,23,24.00
2015,08,25,15,24,24.00
2015,08,25,15,25,23.90
2015,08,25,15,26,23.90
2015,08,25,15,27,23.90
2015,08,25,15,28,23.90
2015,08,25,15,29,23.80
2015,08,25,15,30,23.80
2015,08,25,15,31,23.80
2015,08,25,15,32,23.80
2015,08,25,15,33,23.80
2015,08,25,15,34,23.90
2015,08,25,15,35,23.90
2015,08,25,15,36,23.90
2015,08,25,15,37,24.00
2015,08,25,15,38,24.00
2015,08,25,15,39,24.10
2015,08,25,15,40,24.10
2015,08,25,15,41,24.20
2015,08,25,15,42,24.20
2015,08,25,15,43,24.10
2015,08,25,15,44,24.10
2015,08,25,15,45,24.10
2015,08,25,15,46,24.00
2015,08,25,15,47,24.00
2015,08,25,15,48,23.90
2015,08,25,15,49,23.90
2015,08,25,15,50,24.00
2015,08,25,15,51,24.00
2015,08,25,15,52,24.00
2015,08,25,15,53,24.00
2015,08,25,15,54,24.00
2015,08,25,15,55,24.00
2015,08,25,15,56,24.10
2015,08,25,15,57,24.10
2015,08,25,15,58,24.20
2015,08,25,15,59,24.20
2015,08,25,16,00,24.30
2015,08,25,16,01,24.30
2015,08,25,16,02,24.30
2015,08,25,16,03,24.40
2015,08,25,16,04,24.40
2015,08,25,16,05,24.40
2015,08,25,16,06,24.50
2015,08,25,16,07,24.50
2015,08,25,16,08,24.50
2015,08,25,16,09,24.50
2015,08,25,16,10,24.50
2015,08,25,16,11,24.60
2015,08,25,16,12,24.70
2015,08,25,16,13,24.70
2015,08,25,16,14,24.80
2015,08,25,16,15,24.90
2015,08,25,16,16,25.00
2015,08,25,16,17,25.10
2015,08,25,16,18,25.20
2015,08,25,16,19,25.20
2015,08,25,16,20,25.20
2015,08,25,16,21,25.30
2015,08,25,16,22,25.30
2015,08,25,16,23,25.40
2015,08,25,16,24,25.40
2015,08,25,16,25,25.50
2015,08,25,16,26,25.60
2015,08,25,16,27,25.60
2015,08,25,16,28,25.70
2015,08,25,16,29,25.70
2015,08,25,16,30,25.70
2015,08,25,16,31,25.80
2015,08,25,16,32,25.80
2015,08,25,16,33,25.80
2015,08,25,16,34,25.80
2015,08,25,16,35,25.70
2015,08,25,16,36,25.60
2015,08,25,16,37,25.60
2015,08,25,16,38,25.50
2015,08,25,16,39,25.40
2015,08,25,16,40,25.30
2015,08,25,16,41,25.30
2015,08,25,16,42,25.30
2015,08,25,16,43,25.30
2015,08,25,16,44,25.30
2015,08,25,16,45,25.30
2015,08,25,16,46,25.30
2015,08,25,16,47,25.30
2015,08,25,16,48,25.30
2015,08,25,16,49,25.30
2015,08,25,16,50,25.30
2015,08,25,16,51,25.30
2015,08,25,16,52,25.30
2015,08,25,16,53,25.20
2015,08,25,16,54,25.10
2015,08,25,16,55,25.00
2015,08,25,16,56,24.80
2015,08,25,16,57,24.80
2015,08,25,16,58,24.70
2015,08,25,16,59,24.60
2015,08,25,17,00,24.50
2015,08,25,17,01,24.40
2015,08,25,17,02,24.30
2015,08,25,17,03,24.30
2015,08,25,17,04,24.20
2015,08,25,17,05,24.20
2015,08,25,17,06,24.20
2015,08,25,17,07,24.20
2015,08,25,17,08,24.30
2015,08,25,17,09,24.30
2015,08,25,17,10,24.40
2015,08,25,17,11,24.40
2015,08,25,17,12,24.50
2015,08,25,17,13,24.50
2015,08,25,17,14,24.60
2015,08,25,17,15,24.70
2015,08,25,17,16,24.70
2015,08,25,17,17,24.70
2015,08,25,17,18,24.70
2015,08,25,17,19,24.60
2015,08,25,17,20,24.60
2015,08,25,17,21,24.60
2015,08,25,17,22,24.50
2015,08,25,17,23,24.50